Location: Unspecified
(51.0950°N, 12.9690°E)
Time: 06:46:31
(UTC+00:00)

ATLAS 3B R/B - Pass Details

Date: 26 May 2022
Orbit: 976 x 1218 km, 63.8° (Epoch: 20 June)

Event Time Altitude Azimuth Distance (km) Brightness Sun altitude
Rises 22:48:39 0° 311° (NW) 3,986 6.4 -17.6°
Reaches altitude 10° 22:51:57 10° 297° (WNW) 3,061 5.5 -17.6°
Maximum altitude 22:57:14 22° 251° (WSW) 2,335 4.3 -17.6°
Enters shadow 23:00:36 16° 218° (SW) 2,682 4.3 -17.6°
